Regional Weather Roundup
Issued by NWS

Home | Current Version | Previous Version | Text Only | Print | Product List | Glossary Off
Versions: 1 2 3 4 5 6 7 8 9 10 11 12 13 14 15 16 17 18 19 20 21 22 23 24 25 26 27 28 29 30 31 32 33 34 35 36 37 38 39 40 41 42 43 44 45 46 47 48 49 50

000
ASUS45 KCYS 180310
RWRWY

WYOMING REGIONAL WEATHER ROUNDUP
NATIONAL WEATHER SERVICE CHEYENNE WY
800 PM MST FRI NOV 17 2017

NOTE:  "FAIR" INDICATES FEW OR NO CLOUDS BELOW 12,000 FEET
WITH NO SIGNIFICANT WEATHER AND/OR OBSTRUCTIONS TO VISIBILITY.

WYZ001-180400-
YELLOWSTONE NATIONAL PARK

CITY           SKY/WX    TMP DP  RH WIND       PRES   REMARKS
LK YELLOWSTONE   N/A     11   7  84 CALM      30.00R
W YELLOWSTONE  NOT AVBL

$$
WYZ002>013-054>058-071-098>099-180400-
NORTHERN WYOMING

CITY           SKY/WX    TMP DP  RH WIND       PRES   REMARKS
JACKSON        FLURRIES  26  11  52 W13G24    30.05R WCI  15
CODY           FAIR      30  13  49 NW6       29.94R WCI  24
GREYBULL       FAIR      35  16  45 NW12      29.93R WCI  27
WORLAND        CLOUDY    34  23  64 W5        29.92R WCI  30
SHERIDAN       FAIR      30  24  78 W6        29.88R WCI  24
BUFFALO        FAIR      32  15  49 NW16      29.86R WCI  21
GILLETTE       MOCLDY    34  28  79 NW15      29.84R WCI  24
HULETT         FAIR      34  28  80 CALM      29.82R
NEWCASTLE      FAIR      34  30  86 NW8       29.80S WCI  27

$$
WYZ014>020-022>026-101>103-180400-
CENTRAL WYOMING

CITY           SKY/WX    TMP DP  RH WIND       PRES   REMARKS
BIG PINEY      FLURRIES  20  15  81 N14       30.02R WCI   7
PINEDALE       CLOUDY    21  18  86 NW9       30.00R WCI  11
DUBOIS         MOCLDY    21  12  68 W17G24    29.94R WCI   7
LANDER         FAIR      33  10  38 N5        29.92R WCI  29
RIVERTON       FAIR      25  24  96 NE7       29.94R FOG     WCI  17
CASPER         LGT SNOW  28  26  92 N17       29.89R FOG     WCI  16
DOUGLAS        LGT SNOW  31  30  96 NW21G36   29.83R VSB 1   WCI  18

$$
WYZ021-027>030-104>119-180400-
SOUTHERN WYOMING

CITY           SKY/WX    TMP DP  RH WIND       PRES   REMARKS
EVANSTON       FAIR      22  15  75 W15       30.10R WCI   9
FORT BRIDGER   FAIR      22  19  86 W20G28    30.09R WCI   7
ROCK SPRINGS   FAIR      24  17  74 W26G37    30.00R WCI   8
DIXON          CLOUDY    29  23  77 W5        30.02R WCI  24
RAWLINS        LGT SNOW  28  23  81 W25G45    29.89R WCI  13
SARATOGA       MIX PCPN  28  27  93 W15G31    29.91R WCI  17
LARAMIE        CLOUDY    27  25  92 SW10      29.83R WCI  17
CHEYENNE       FAIR      35  25  66 W30G45    29.77R WCI  22
TORRINGTON     MOCLDY    37  33  85 N13G22    29.73R WCI  29
PINE BLUFFS    CLOUDY    37  30  75 MISG      29.74R

$$



USA.gov is the U.S. government's official web portal to all federal, state and local government web resources and services.